Starlink 31041

operational
NORAD ID: 58537 Int'l Des: 2023-192 Owner: SPXS Country: US Constellation: starlink
LEOCIRCULAR

About Starlink 31041

Description loading...

Live Position

Loading 3D Globe...

Upcoming Passes

Altitude History

Altitude vs Time

uPlot chart will show altitude changes over time

Two-Line Element Set

1 58537U 23192G 25349.48358978 -.00000664 00000-0 -10307-4 0 9993
2 58537 53.1603 93.8279 0001206 85.9047 274.2092 15.30205294113099
Epoch: Dec 15, 2025 • Age: 28 hours

Current Status

Altitude 492.0 km
Velocity 7.62 km/s
Sub-Earth Point -46.91°S, 5.89°E
Launch Date Dec 8, 2023
Age 2 years
Type internet

Technical Details

Classification Payload
Mass 730.00 kg
Dry Mass 700.00 kg
Total Mass 730.00 kg
Length 0.30 m
Diameter 4.10 m
Span 29.00 m
Shape Box + pan
Manufacturer SPXS
Bus Type Starlink V2M
Phase Status In Orbit
Owner/State SPXS/US

Large Constellations

Loading constellations...